Regional Weather Roundup
Issued by NWS

Home | Current Version | Previous Version | Text Only | Print | Product List | Glossary Off
Versions: 1 2 3 4 5 6 7 8 9 10 11 12 13 14 15 16 17 18 19 20 21 22 23 24 25 26 27 28 29 30 31 32 33 34 35 36 37 38 39 40 41 42 43 44 45 46 47 48 49 50

000
ASUS43 KIND 222009
RWRIN

WEATHER ROUNDUP FOR INDIANA
NATIONAL WEATHER SERVICE INDIANAPOLIS IN
400 PM EDT TUE JUL 22 2014

NOTE: "FAIR" INDICATES FEW OR NO CLOUDS BELOW 12,000 FEET WITH NO
SIGNIFICANT WEATHER AND/OR OBSTRUCTIONS TO VISIBILITY.

* - STATION DOES NOT REPORT WEATHER SUCH AS PRECIPITATION OR FOG.

+ - STATION NOT QUALITY CONTROLLED BY THE NATIONAL WEATHER SERVICE.
    USE DATA WITH CAUTION...ESPECIALLY DEWPOINT AND RELATIVE
    HUMIDITY OBSERVATIONS.

INZ001>003-010>013-019-020-222100-
NORTHWEST INDIANA

CITY           SKY/WX    TMP DP  RH WIND       PRES   REMARKS
GARY /AIRPORT/ MOSUNNY   88  70  55 S12G25    29.97F
KNOX *+        SUNNY     86  67  52 S10       30.00F
LA PORTE +     SUNNY     85  68  55 S10       30.01F
MICHIGAN CITY+ MOSUNNY   86  66  51 S13       29.98F
MONTICELLO +   SUNNY     83  71  65 SW8       30.03F
RENSSELAER +   SUNNY     82  72  69 S13       30.02F
VALPARAISO     SUNNY     87  69  54 S15       30.00F

$$

LMZ046-743>745-222100-
SOUTHERN LAKE MICHIGAN

STATION/POSITION TIME  TEMP WIND        PRES
                       AIR  DIR/SP/G
                 (UTC) (F)  (DEG/KT/KT) (MB)
MICHIGAN CITY    2000   83  190/ 16/ 19   N/A

$$

INZ004-005-014>016-021>024-222100-
NORTH CENTRAL INDIANA

CITY           SKY/WX    TMP DP  RH WIND       PRES   REMARKS
ELKHART        MOSUNNY   86  64  48 SW7G17    30.01
GOSHEN         MOSUNNY   88  68  51 S13       30.01F
LOGANSPORT +   SUNNY     86  64  48 SW10      30.05F
PERU/GRISSOM   MOSUNNY   87  70  56 SW14      30.04F
ROCHESTER +    SUNNY     90  64  43 SW7       30.04S
SOUTH BEND     SUNNY     88  66  48 SW15      30.00F
WARSAW +       MOSUNNY   86  66  51 SW7       30.03F

$$

INZ006>009-017-018-025>027-222100-
NORTHEAST INDIANA

CITY           SKY/WX    TMP DP  RH WIND       PRES   REMARKS
ANGOLA *+      SUNNY     90  68  48 SW12      30.03F
AUBURN +       SUNNY     88  63  42 SW9       30.04F
FORT WAYNE     MOSUNNY   89  65  44 SW14      30.05F
HUNTINGTON +   MOSUNNY   87  67  52 W8G21     30.04F

$$

INZ028-029-035-036-043>045-051>053-222100-
WEST CENTRAL INDIANA

CITY           SKY/WX    TMP DP  RH WIND       PRES   REMARKS
GREENCASTLE +  MOSUNNY   82  70  65 W5        30.07F
LAFAYETTE      SUNNY     85  68  56 VRB7      30.03F
TERRE HAUTE    MOSUNNY   87  68  52 SW12      30.06S

$$

INZ030>032-037>040-046>048-054>057-064-065-222100-
CENTRAL INDIANA

CITY           SKY/WX    TMP DP  RH WIND       PRES   REMARKS
ANDERSON       MOSUNNY   86  64  48 SW12      30.07F
CP ATTERBURY + SUNNY     88  61  40 SW12      30.07F
COLUMBUS       MOSUNNY   88  64  45 SW7       30.06F
GREENWOOD *+   MOSUNNY   88  68  51 W10       30.07F
INDIANAPOLIS   MOSUNNY   87  65  47 SW12G18   30.06S
-EAGLE CREEK   SUNNY     87  64  46 SW8       30.05F
KOKOMO *+      SUNNY     88  68  51 SW9       30.05S
MARION +       SUNNY     85  65  51 SW7       30.06F
MT COMFORT *+  SUNNY     88  66  48 SW7       30.07S
SHELBYVILLE    SUNNY     89  65  44 SW10      30.06F
ZIONSVILLE +   SUNNY     87  63  44 SW9       30.07F

$$

INZ033-034-041-042-049-050-058-059-222100-
EAST CENTRAL INDIANA

CITY           SKY/WX    TMP DP  RH WIND       PRES   REMARKS
MUNCIE         MOSUNNY   87  63  44 SW10G18   30.06S

$$

INZ060-061-067>069-081>083-085>088-222100-
SOUTHWEST INDIANA

CITY           SKY/WX    TMP DP  RH WIND       PRES   REMARKS
EVANSVILLE     SUNNY     91  63  39 S7        30.06F
HUNTINGBURG *+ SUNNY     90  66  45 W3G16     30.06F
WASHINGTON +   MOSUNNY   87  70  55 SW7       30.05F

$$

INZ062-063-066-070>080-084-089>092-222100-
SOUTH CENTRAL AND SOUTHEAST INDIANA

CITY           SKY/WX    TMP DP  RH WIND       PRES   REMARKS
BLOOMINGTON    MOSUNNY   86  67  52 SW8       30.07F

$$




USA.gov is the U.S. government's official web portal to all federal, state and local government web resources and services.